Temp
69 70 71 71 72 72 72 72 71 71 73 74 74 74 75 76 72 71 73 75 79 81 80 79 79 79 79 79 79 78 79 79 79
67 67 68 69 70 71 71 71 71 71 72 72 74 74 73 73 70 70 71 73 78 80 80 79 79 79 79 79 79 78 79 79 79
66 66 67 67 68 69 69 69 69 70 71 72 72 73 72 72 69 71 71 75 77 79 78 79 78 78 79 79 79 79 78 77 79
65 66 67 67 67 67 68 68 69 69 70 71 71 72 72 67 68 71 73 76 76 76 77 76 78 78 78 78 78 79 79 78 77
60 62 64 65 66 67 67 67 68 68 69 70 71 70 70 65 66 68 70 73 74 75 76 76 76 78 78 78 79 78 79 79 78
54 59 61 63 64 65 65 66 66 67 68 69 70 69 64 65 66 68 73 73 74 74 75 76 76 77 78 78 78 78 77 77 78
57 57 59 60 60 62 64 65 66 65 61 61 65 63 63 64 65 68 74 73 74 74 74 75 76 76 76 77 78 78 78 77 77
53 52 51 51 56 53 55 57 59 58 58 59 61 62 61 63 65 70 73 73 74 74 74 74 75 75 74 74 76 77 77 77 76
50 51 52 52 52 52 52 53 54 56 59 60 59 59 59 59 61 63 72 72 73 73 74 75 75 74 72 72 74 75 77 77 76
51 51 51 51 51 51 51 52 52 52 54 59 59 60 60 60 63 59 70 71 72 73 74 74 74 72 71 71 71 71 71 72 72
50 50 49 49 50 51 51 50 50 51 52 54 58 58 58 59 60 59 60 70 71 72 73 74 73 73 71 70 70 69 68 69 71
50 48 48 49 50 50 50 50 50 50 52 50 54 58 58 58 59 59 59 62 69 71 72 73 72 72 72 71 70 69 69 68 68
49 47 47 48 48 48 47 47 47 48 48 50 51 54 56 57 58 59 59 58 62 67 70 71 72 72 72 71 71 72 70 68 68
47 46 46 48 47 46 47 47 47 46 47 48 52 52 52 53 60 57 58 58 58 59 67 69 70 70 71 71 72 72 72 72 68
47 46 45 46 45 45 45 45 46 46 46 48 49 49 51 52 51 53 58 57 59 58 58 58 60 68 69 70 70 71 72 72 71
46 45 45 45 44 44 45 44 43 44 46 44 45 47 49 51 51 52 52 55 58 57 56 55 55 59 68 68 69 70 72 72 73
47 45 44 43 43 44 43 44 42 43 45 41 42 38 43 47 52 50 54 53 54 57 59 58 58 56 55 58 67 67 69 72 72
46 45 45 43 43 42 43 44 42 41 43 44 41 37 38 43 52 49 50 51 50 52 57 58 58 57 55 60 62 65 67 68 69
47 46 45 44 43 42 43 46 44 42 40 43 45 45 44 38 39 50 49 50 52 51 51 56 57 57 55 60 61 64 65 66 67
46 46 44 43 42 43 42 44 44 44 43 42 42 43 43 45 41 37 45 50 49 50 51 55 53 57 55 54 59 64 64 64 65
MSLP
1018.26 1017.90 1017.49 1017.12 1016.87 1016.66 1016.61 1016.48 1016.40 1016.27 1015.80 1015.31 1015.10 1014.81 1014.53 1014.23 1014.20 1013.99 1013.66 1013.25 1013.01 1013.04 1013.25 1013.54 1013.73 1013.94 1014.21 1014.35 1014.45 1014.56 1014.58 1014.88 1015.16
1018.28 1017.93 1017.57 1017.27 1016.83 1016.55 1016.44 1016.36 1016.40 1016.11 1015.74 1015.35 1014.91 1014.60 1014.61 1014.24 1014.02 1013.79 1013.46 1013.21 1012.79 1012.78 1013.01 1013.19 1013.49 1013.72 1013.94 1014.11 1014.23 1014.36 1014.42 1014.72 1014.99
1018.46 1018.09 1017.61 1017.20 1016.82 1016.54 1016.53 1016.37 1016.13 1015.89 1015.62 1015.23 1014.90 1014.60 1014.48 1014.33 1014.09 1013.69 1013.24 1012.82 1012.67 1012.58 1012.97 1013.02 1013.17 1013.48 1013.68 1013.78 1013.98 1014.21 1014.37 1014.59 1014.86
1018.48 1017.93 1017.58 1017.15 1016.86 1016.59 1016.46 1016.25 1016.00 1015.69 1015.36 1014.98 1014.82 1014.46 1014.33 1014.36 1014.23 1013.71 1013.14 1012.50 1012.54 1012.48 1012.59 1012.79 1012.92 1013.22 1013.41 1013.58 1013.80 1013.93 1014.11 1014.39 1014.72
1019.49 1018.72 1017.91 1017.09 1016.70 1016.47 1016.21 1015.93 1015.62 1015.24 1014.96 1014.76 1014.53 1014.47 1014.13 1014.22 1014.16 1013.67 1013.13 1012.68 1012.66 1012.59 1012.60 1012.63 1012.66 1012.94 1013.09 1013.30 1013.49 1013.69 1013.75 1014.01 1014.33
1019.95 1019.08 1018.29 1017.30 1016.70 1016.30 1015.95 1015.52 1015.23 1014.97 1014.66 1014.29 1014.16 1014.18 1014.24 1014.09 1013.81 1013.24 1012.75 1012.59 1012.52 1012.60 1012.58 1012.62 1012.55 1012.69 1012.78 1012.98 1013.17 1013.33 1013.54 1013.71 1013.92
1019.48 1019.31 1018.65 1017.92 1017.43 1016.54 1015.92 1015.23 1014.83 1014.71 1014.82 1014.57 1014.19 1014.02 1013.76 1013.56 1013.33 1012.87 1012.24 1012.31 1012.21 1012.43 1012.57 1012.67 1012.50 1012.50 1012.65 1012.67 1012.77 1012.93 1013.18 1013.44 1013.71
1019.39 1019.11 1018.83 1018.36 1017.73 1017.29 1016.91 1015.97 1015.13 1014.78 1014.43 1014.38 1014.00 1013.68 1013.19 1012.82 1012.77 1012.26 1011.85 1012.01 1012.03 1012.28 1012.40 1012.45 1012.53 1012.41 1012.54 1012.51 1012.57 1012.60 1012.74 1013.16 1013.46
1019.44 1019.06 1018.68 1018.28 1017.89 1017.42 1017.02 1016.31 1015.76 1015.06 1014.20 1013.80 1013.22 1013.01 1012.71 1012.58 1012.39 1012.03 1011.53 1011.88 1012.10 1012.21 1012.11 1012.13 1012.25 1012.38 1012.54 1012.47 1012.34 1012.34 1012.47 1012.77 1013.12
1019.40 1018.99 1018.86 1018.52 1017.94 1017.45 1016.98 1016.49 1016.03 1015.57 1014.98 1013.86 1013.20 1012.82 1012.57 1012.43 1012.05 1011.86 1011.65 1011.46 1011.63 1012.03 1011.97 1011.97 1011.92 1012.35 1012.51 1012.56 1012.50 1012.65 1012.82 1012.85 1012.97
1019.12 1018.89 1018.66 1018.27 1017.91 1017.61 1017.00 1016.74 1016.35 1015.72 1015.35 1014.52 1013.37 1012.61 1012.39 1012.17 1012.02 1011.60 1011.48 1011.28 1011.42 1011.79 1011.90 1011.84 1012.04 1012.12 1012.37 1012.47 1012.71 1012.90 1012.98 1013.08 1013.10
1019.14 1018.82 1018.54 1018.05 1017.63 1017.25 1016.91 1016.45 1016.09 1015.85 1015.11 1014.52 1013.66 1012.45 1012.25 1011.91 1011.74 1011.64 1011.48 1011.35 1011.05 1011.32 1011.65 1011.75 1011.87 1012.04 1012.10 1012.28 1012.62 1012.94 1013.08 1013.23 1013.30
1019.11 1018.69 1018.22 1017.95 1017.51 1017.05 1016.69 1016.43 1016.16 1015.71 1015.20 1014.49 1013.90 1013.09 1012.21 1011.86 1011.50 1011.40 1011.15 1011.17 1011.04 1011.03 1011.27 1011.52 1011.69 1011.94 1012.15 1012.26 1012.41 1012.60 1013.01 1013.33 1013.28
1019.18 1018.75 1018.23 1017.68 1017.20 1016.81 1016.34 1015.92 1015.75 1015.48 1015.01 1014.48 1013.72 1013.11 1012.86 1011.82 1011.20 1011.17 1010.86 1010.87 1010.85 1010.80 1011.01 1011.30 1011.71 1011.83 1012.03 1012.24 1012.21 1012.47 1012.64 1012.88 1013.28
1019.00 1018.63 1018.12 1017.52 1016.99 1016.42 1016.13 1015.70 1015.45 1015.34 1015.10 1014.63 1013.99 1013.60 1012.95 1012.10 1011.28 1011.08 1010.85 1010.68 1010.50 1010.65 1010.94 1011.32 1011.70 1011.85 1012.10 1012.16 1012.24 1012.36 1012.47 1012.48 1012.74
1018.81 1018.34 1018.10 1017.48 1016.94 1016.31 1015.80 1015.48 1015.20 1014.94 1014.95 1014.90 1014.12 1013.22 1012.58 1012.01 1011.37 1010.83 1010.76 1010.74 1010.57 1010.42 1010.86 1011.34 1011.74 1011.68 1011.78 1012.13 1012.30 1012.32 1012.33 1012.26 1012.40
1018.73 1018.26 1017.79 1017.49 1016.76 1016.15 1015.64 1015.30 1014.91 1014.61 1014.59 1014.66 1014.36 1013.40 1012.38 1011.65 1011.05 1010.92 1010.71 1010.51 1010.64 1010.67 1010.46 1010.86 1011.24 1011.51 1011.82 1012.04 1012.15 1012.26 1012.37 1012.19 1012.14
1018.57 1018.05 1017.51 1017.09 1016.69 1015.94 1015.30 1014.91 1014.69 1014.37 1014.20 1014.31 1014.44 1013.77 1012.97 1012.20 1010.61 1010.70 1010.60 1010.52 1010.74 1010.73 1010.68 1010.54 1010.72 1011.20 1011.64 1011.73 1011.93 1012.17 1012.36 1012.37 1012.30
1018.22 1017.71 1017.19 1016.78 1016.30 1015.78 1015.06 1014.28 1014.31 1014.23 1013.98 1014.07 1014.20 1014.21 1013.98 1013.46 1012.11 1011.19 1010.85 1010.62 1010.77 1010.79 1010.71 1010.51 1010.41 1010.79 1011.37 1011.50 1011.81 1011.83 1012.16 1012.42 1012.45
1017.92 1017.35 1016.89 1016.35 1016.01 1015.53 1014.94 1014.11 1013.85 1013.53 1013.43 1013.76 1013.98 1014.09 1013.87 1013.68 1013.41 1012.65 1011.96 1011.11 1010.73 1010.54 1010.52 1010.59 1010.45 1010.43 1010.93 1011.29 1011.42 1011.44 1011.85 1012.33 1012.37
Wind_Speed
23 23 23 23 22 21 21 19 21 20 20 19 17 16 17 14 6 7 7 10 14 15 13 11 11 9 10 7 6 6 13 11 10
23 24 24 24 23 22 21 20 22 21 22 19 21 17 16 11 6 7 8 7 17 11 12 12 10 9 9 11 8 4 9 12 11
22 22 23 23 24 23 23 23 23 24 23 20 20 19 15 13 8 10 7 9 14 15 13 11 11 10 10 12 11 9 9 11 11
23 21 20 20 20 22 22 23 23 24 24 22 19 19 18 9 7 11 8 11 7 7 11 12 10 11 11 10 12 13 12 12 11
23 26 20 21 22 23 23 24 23 24 23 23 20 19 21 7 10 9 8 1 2 4 6 9 10 12 13 12 13 13 15 14 13
14 19 23 24 20 20 22 24 24 24 25 22 23 20 7 9 8 7 15 6 3 6 6 9 10 11 13 15 14 14 14 15 14
15 14 22 23 23 25 22 21 21 19 9 6 15 7 8 8 9 8 8 8 4 4 10 9 10 12 10 12 14 14 13 15 15
6 5 5 7 16 8 13 13 9 8 7 9 8 10 7 6 7 10 11 10 8 6 8 13 9 8 6 6 11 15 14 13 15
6 6 8 7 7 10 9 7 12 16 12 10 7 6 5 4 4 5 12 10 7 7 9 9 14 5 4 1 2 9 12 14 14
7 6 7 7 8 8 9 9 10 11 14 12 9 8 7 7 6 3 12 14 10 9 10 7 5 7 5 5 6 7 4 5 2
6 7 8 8 7 8 8 8 9 9 10 13 12 9 6 6 7 5 4 13 11 11 12 11 8 7 7 8 7 4 4 4 6
10 6 6 8 8 10 8 8 8 8 10 11 13 9 9 7 6 5 4 6 14 13 14 14 10 8 8 8 7 5 4 5 5
10 9 6 7 7 7 7 6 7 7 8 8 9 11 7 7 7 6 5 3 5 11 15 15 13 11 9 6 5 4 6 4 5
9 10 9 10 7 7 7 7 6 6 8 8 9 8 10 7 6 6 6 6 5 5 13 15 12 10 9 8 7 6 6 7 7
10 8 10 10 9 6 6 8 6 7 7 9 10 9 10 9 5 5 5 5 5 6 6 4 5 10 9 7 7 8 9 8 9
12 7 9 10 9 10 8 7 7 6 5 6 6 7 7 10 7 5 4 5 4 5 6 4 4 4 11 9 10 11 11 11 12
11 12 7 10 9 9 10 8 5 5 4 3 5 4 4 5 8 4 5 6 4 4 6 6 6 4 4 6 8 8 11 12 13
12 11 10 9 9 8 10 8 8 5 3 6 3 3 3 5 4 6 4 4 3 4 4 6 6 6 5 6 6 8 9 12 13
12 11 10 10 7 10 10 7 4 4 6 3 5 8 2 3 5 4 4 5 5 5 3 4 5 6 5 7 7 5 8 11 13
13 12 12 10 8 8 11 10 5 6 4 3 1 5 3 3 4 5 5 4 2 4 4 4 3 4 5 4 4 7 5 6 11
Wind_Direction
311 309 307 306 302 300 296 297 302 305 303 299 303 313 315 301 287 288 273 275 289 208 193 195 203 215 237 226 213 245 221 191 180
318 314 306 301 298 296 296 298 296 300 297 297 293 297 316 304 289 280 277 279 272 231 197 198 216 242 251 217 217 221 203 189 175
317 312 305 300 298 300 297 294 292 290 291 288 293 285 296 313 305 293 262 259 283 252 227 209 210 232 248 234 216 214 192 194 187
331 324 313 304 301 293 288 285 287 286 285 282 282 287 290 305 299 292 293 260 225 253 233 229 222 236 244 251 237 222 216 208 207
332 333 322 312 309 302 294 290 287 285 280 277 276 280 283 295 284 269 274 120 295 265 269 250 235 244 243 245 247 243 226 218 212
319 327 323 325 315 296 292 292 288 285 284 279 275 274 273 275 270 266 253 191 206 268 275 268 256 246 246 247 244 245 237 223 210
331 330 329 330 326 332 321 311 299 285 287 287 282 280 248 242 252 260 218 199 186 262 256 264 260 248 255 253 245 241 238 226 222
320 320 318 324 323 328 328 328 317 306 257 254 250 254 255 230 245 258 219 204 192 224 259 242 254 248 250 254 258 239 236 231 227
317 322 320 320 316 322 316 326 324 320 303 292 269 275 275 267 267 267 186 191 209 227 245 252 233 203 217 186 218 239 231 229 235
313 315 318 309 308 304 309 315 315 317 317 301 294 283 270 270 273 269 213 195 196 223 241 234 182 152 145 123 113 103 117 135 83
311 320 314 305 301 295 296 298 302 306 309 311 299 294 279 270 257 266 259 201 201 220 231 219 203 177 148 125 116 128 127 112 116
317 310 312 302 298 293 287 286 295 299 303 307 313 289 292 284 270 266 252 220 195 205 225 232 208 201 162 150 141 137 122 137 162
335 319 308 304 301 287 279 273 273 286 293 301 302 308 277 268 270 272 264 210 196 203 213 225 215 216 197 181 173 182 186 191 165
331 332 325 310 298 293 285 281 270 281 292 294 290 304 321 286 280 273 265 255 200 182 205 209 216 225 213 222 211 216 225 214 202
317 330 315 316 300 290 292 282 264 265 275 292 301 296 298 298 267 274 286 280 238 154 178 172 185 198 214 227 235 235 239 215 215
328 319 325 317 317 314 279 278 274 262 252 280 278 282 280 290 288 260 260 283 278 196 149 168 195 208 212 225 243 247 249 231 223
325 325 324 320 313 304 293 279 275 270 214 266 298 294 297 269 264 260 240 246 263 250 192 186 193 175 190 213 234 250 268 253 250
323 323 321 320 317 311 300 286 272 267 233 213 244 295 302 330 226 234 237 236 266 257 238 189 187 195 193 189 195 200 252 267 274
321 320 319 319 312 314 311 283 329 246 262 193 241 277 267 323 335 346 252 217 231 252 270 232 193 185 183 183 179 177 243 261 261
317 318 324 312 318 314 313 313 284 267 222 189 159 237 265 259 273 302 332 335 268 228 230 250 206 193 172 173 186 179 211 267 266